map of WVB home
Great Circle Mapper logo
WVB - Airport
Location
City:  Walvis Bay, Namibia
Name:Rooikop
ICAO / IATA:FYWB / WVB

Details
Type:Airport (Aerodrome, Airfield)
Use:Public/Civil, International (customs port of entry)
Latitude:2258'48"S (-22.979888)
Longitude:1438'43"E (14.645331)
Datum:other
Elevation:299 ft (91 m)
Variation:13.13W (WMM2015 magnetic declination)
0.12 annual change
Runways:1
Longest:7001 × 98 ft (2134 × 30 m), paved

Time
Time Zone:UTC+1 (DST+2)
Local Time:

Weather
METAR:FYWB 130400Z 17001KT 9999 OVC009 18/15 Q1014
TAF:FYWB 130400Z 1306/1412 04003KT 9999 OVC007
BECMG 1307/1309 31005KT 9999 BKN015
BECMG 1309/1311 23015KT CAVOK

Related Locations
Nearby:
Farthest:PHHF: 12352 mi / 19878 km
Tern Island [French Frigate Shoals Airport], HI, US

Find:

   beyond  
but within

Other Information
Maps:
NOTAMs:
Links:
Sources:

  
flag of Namibia   

Sectional Chart

Flight Planning
at skyvector.com

Satellite Image

Google Maps Satellite view

 

Copyright © 2004-2016 Karl L. Swartz. All rights reserved.
The Great Circle Mapper name and logo are trademarks of the Great Circle Mapper.
All other trademarks mentioned herein belong to their respective owners.
Please see credits for attibutions and further copyright information.

  Follow gcmap on Facebook Follow gcmap on Twitter Follow gcmap on Google+ GCmap on LinkedIn

hCard Microformat

Geo Microformat